Starlink 30077

operational
NORAD ID: 57460 Int'l Des: 2023-107 Owner: SPXS Country: US Constellation: starlink
LEOCIRCULAR

关于 Starlink 30077

正在加载描述...

实时位置

正在加载3D地球...

即将过境

高度历史

Altitude vs Time

uPlot chart will show altitude changes over time

两行轨道根数

1 57460U 23107D 25259.39684360 .00003091 00000-0 24364-3 0 9992
2 57460 43.0017 206.1628 0001075 267.0951 92.9768 15.02561235118895
Epoch: Sep 16, 2025 • Age: 16 hours

当前状态

高度 564.3 km
速度 7.58 km/s
星下点 -23.83°S, 158.47°E
发射日期 Jul 28, 2023
运行时间 2.1 years
类型 internet

技术详情

分类 Payload
质量 730.00 kg
干质量 700.00 kg
总质量 730.00 kg
长度 0.30 m
直径 4.10 m
跨度 29.00 m
形状 Box + pan
制造商 SPXS
平台类型 Starlink V2M
阶段状态 In Orbit
所有者/国家 SPXS/US

大型星座

Loading constellations...